NAPEX1 KICT-KTUL

Flight info

Callsign NAPEX1
Flight time N/A
Altitude 12000
Route DCT JAMEY DCT PER DCT
Aircraft C25C/L-SG/L

Departure

Time 2026-04-22 19:16
Airport Wichita Dwight D. Eisenhower National Airport (KICT)

Arrival

Time N/A
Airport Tulsa International Airport (KTUL)
Time Latitude Longitude Altitude Speed Heading
2026-04-22 19:08 37.66004 -97.43130 1325 ft 0 kts 156°
2026-04-22 19:11 37.66007 -97.43131 1325 ft 2 kts 156°
2026-04-22 19:11 37.66020 -97.43139 1326 ft 2 kts 156°
2026-04-22 19:12 37.66034 -97.43146 1326 ft 2 kts 156°
2026-04-22 19:12 37.66041 -97.43151 1327 ft 0 kts 156°
2026-04-22 19:14 37.66043 -97.43130 1327 ft 4 kts 17°
2026-04-22 19:14 37.66068 -97.43157 1328 ft 7 kts 310°
2026-04-22 19:14 37.66106 -97.43235 1329 ft 14 kts 290°
2026-04-22 19:14 37.66120 -97.43282 1328 ft 3 kts 290°
2026-04-22 19:15 37.66129 -97.43318 1328 ft 10 kts 289°
2026-04-22 19:15 37.66085 -97.43417 1326 ft 0 kts 201°
2026-04-22 19:15 37.65787 -97.43546 1350 ft 108 kts 192°
2026-04-22 19:16 37.64920 -97.44039 2340 ft 152 kts 198°
2026-04-22 19:16 37.63885 -97.44577 3604 ft 167 kts 200°
2026-04-22 19:16 37.62785 -97.45135 4700 ft 184 kts 200°
2026-04-22 19:16 37.61468 -97.45780 5029 ft 225 kts 199°
2026-04-22 19:17 37.59885 -97.46533 5022 ft 251 kts 199°
2026-04-22 19:17 37.58376 -97.47245 5007 ft 220 kts 199°
2026-04-22 19:17 37.57007 -97.47888 5009 ft 202 kts 199°
2026-04-22 19:17 37.55730 -97.48490 5005 ft 191 kts 199°
2026-04-22 19:18 37.54486 -97.48996 4997 ft 186 kts 189°
2026-04-22 19:18 37.53216 -97.48622 5127 ft 197 kts 161°
2026-04-22 19:18 37.51962 -97.48113 6436 ft 185 kts 165°
2026-04-22 19:18 37.50718 -97.47599 7489 ft 189 kts 165°
2026-04-22 19:19 37.49450 -97.47077 8502 ft 196 kts 163°
2026-04-22 19:19 37.48149 -97.46559 9589 ft 194 kts 165°
2026-04-22 19:19 37.46821 -97.46035 10378 ft 206 kts 166°
2026-04-22 19:19 37.45421 -97.45480 11133 ft 217 kts 166°
2026-04-22 19:20 37.43919 -97.44879 11931 ft 242 kts 166°
2026-04-22 19:20 37.42140 -97.44179 12015 ft 295 kts 165°
2026-04-22 19:20 37.40036 -97.43347 12024 ft 337 kts 165°
2026-04-22 19:20 37.37687 -97.42408 12039 ft 369 kts 164°
2026-04-22 19:21 37.35302 -97.41450 12036 ft 343 kts 163°
2026-04-22 19:21 37.33123 -97.40575 12034 ft 316 kts 164°
2026-04-22 19:21 37.31092 -97.39772 12030 ft 296 kts 164°
2026-04-22 19:21 37.29190 -97.38970 12020 ft 283 kts 161°
2026-04-22 19:22 37.27366 -97.38179 12018 ft 272 kts 166°
2026-04-22 19:22 37.25610 -97.37489 11990 ft 263 kts 165°
2026-04-22 19:23 37.15710 -97.33284 11993 ft 244 kts 165°
2026-04-22 19:24 37.14104 -97.32604 11992 ft 243 kts 166°
2026-04-22 19:24 37.12508 -97.31933 11992 ft 242 kts 164°
2026-04-22 19:24 37.10906 -97.31259 11992 ft 242 kts 165°
2026-04-22 19:24 37.09318 -97.30590 11993 ft 241 kts 165°
2026-04-22 19:25 37.07731 -97.29919 11993 ft 241 kts 166°
2026-04-22 19:25 37.06144 -97.29250 12006 ft 240 kts 165°
2026-04-22 19:25 37.04561 -97.28578 12006 ft 240 kts 164°
2026-04-22 19:25 37.02962 -97.27905 11988 ft 254 kts 165°
2026-04-22 19:26 37.01114 -97.27139 11989 ft 305 kts 164°
2026-04-22 19:26 36.98954 -97.26232 12005 ft 347 kts 164°
2026-04-22 19:26 36.96571 -97.25217 12115 ft 369 kts 163°
2026-04-22 19:26 36.94216 -97.24217 12203 ft 346 kts 164°
2026-04-22 19:27 36.91985 -97.23275 12255 ft 335 kts 165°
2026-04-22 19:27 36.89773 -97.22355 12298 ft 335 kts 165°
2026-04-22 19:27 36.87560 -97.21426 12341 ft 336 kts 163°
2026-04-22 19:27 36.85344 -97.20492 12383 ft 336 kts 164°
2026-04-22 19:28 36.83130 -97.19568 12419 ft 336 kts 165°
2026-04-22 19:28 36.80909 -97.18636 12457 ft 337 kts 163°
2026-04-22 19:28 36.78685 -97.17704 12498 ft 337 kts 164°
2026-04-22 19:28 36.76464 -97.16776 12537 ft 338 kts 165°
2026-04-22 19:29 36.74280 -97.15857 12770 ft 320 kts 164°
2026-04-22 19:29 36.72160 -97.14966 13171 ft 324 kts 165°
2026-04-22 19:29 36.70146 -97.13661 13504 ft 337 kts 143°
2026-04-22 19:29 36.68765 -97.11219 13490 ft 360 kts 117°
2026-04-22 19:30 36.68318 -97.09193 13259 ft 372 kts 100°
2026-04-22 19:30 36.68131 -97.04830 12884 ft 380 kts 92°
2026-04-22 19:30 36.68023 -97.01544 12601 ft 376 kts 94°
2026-04-22 19:30 36.67749 -96.98392 12312 ft 366 kts 100°
2026-04-22 19:31 36.67092 -96.95356 12055 ft 344 kts 111°
2026-04-22 19:31 36.66276 -96.92679 11980 ft 326 kts 113°
2026-04-22 19:31 36.65445 -96.90079 11982 ft 312 kts 113°
2026-04-22 19:31 36.64790 -96.87594 11989 ft 302 kts 108°
2026-04-22 19:32 36.64185 -96.85126 11989 ft 294 kts 110°
2026-04-22 19:32 36.63557 -96.82733 12002 ft 288 kts 110°
2026-04-22 19:32 36.62934 -96.80393 12000 ft 282 kts 111°
2026-04-22 19:32 36.62322 -96.78091 12003 ft 278 kts 111°
2026-04-22 19:33 36.61722 -96.75818 12005 ft 275 kts 110°
2026-04-22 19:33 36.61128 -96.73560 11959 ft 274 kts 111°
2026-04-22 19:33 36.60535 -96.71318 11952 ft 272 kts 111°
2026-04-22 19:33 36.59941 -96.69082 11955 ft 271 kts 111°
2026-04-22 19:34 36.59352 -96.66855 11953 ft 270 kts 110°
2026-04-22 19:34 36.58765 -96.64640 11952 ft 269 kts 111°
2026-04-22 19:34 36.58178 -96.62432 11953 ft 268 kts 110°
2026-04-22 19:34 36.57596 -96.60236 11957 ft 267 kts 110°
2026-04-22 19:35 36.57009 -96.58045 11953 ft 267 kts 110°
2026-04-22 19:35 36.56474 -96.55836 11956 ft 266 kts 109°
2026-04-22 19:35 36.56073 -96.54394 11956 ft 266 kts 112°
2026-04-22 19:35 36.55255 -96.51478 11967 ft 267 kts 110°
2026-04-22 19:36 36.54673 -96.49283 11964 ft 268 kts 110°
2026-04-22 19:36 36.54090 -96.47080 11937 ft 269 kts 110°
2026-04-22 19:36 36.53493 -96.44842 11679 ft 277 kts 111°
2026-04-22 19:36 36.52871 -96.42528 11328 ft 287 kts 110°
2026-04-22 19:37 36.52233 -96.40145 10947 ft 295 kts 111°
2026-04-22 19:37 36.51578 -96.37700 10559 ft 301 kts 111°
2026-04-22 19:37 36.50909 -96.35221 10185 ft 304 kts 111°
2026-04-22 19:37 36.50236 -96.32715 9788 ft 307 kts 111°
2026-04-22 19:38 36.49565 -96.30208 9412 ft 306 kts 111°
2026-04-22 19:38 36.48890 -96.27703 9040 ft 305 kts 111°
2026-04-22 19:38 36.48222 -96.25202 8682 ft 304 kts 112°
2026-04-22 19:38 36.47545 -96.22714 8313 ft 303 kts 112°
2026-04-22 19:39 36.46881 -96.20229 7955 ft 302 kts 112°
2026-04-22 19:39 36.46215 -96.17777 7596 ft 293 kts 112°
2026-04-22 19:39 36.45569 -96.15479 7232 ft 271 kts 117°
2026-04-22 19:39 36.45167 -96.13242 6855 ft 266 kts 95°
2026-04-22 19:40 36.45234 -96.10982 6490 ft 257 kts 94°
2026-04-22 19:40 36.45329 -96.08821 6095 ft 252 kts 88°
2026-04-22 19:40 36.45996 -96.06795 5687 ft 257 kts 63°
2026-04-22 19:40 36.46898 -96.04903 5320 ft 253 kts 63°
2026-04-22 19:41 36.47812 -96.03049 4953 ft 250 kts 62°
2026-04-22 19:41 36.48725 -96.01228 4575 ft 247 kts 62°
2026-04-22 19:41 36.49634 -95.99434 4199 ft 244 kts 61°
2026-04-22 19:41 36.50518 -95.97635 3826 ft 243 kts 62°
2026-04-22 19:42 36.51391 -95.95864 3678 ft 230 kts 63°
2026-04-22 19:42 36.52192 -95.94266 3888 ft 208 kts 62°